Change the Weather History Date:

Tuesday, January 14, 2014

  Actual Average Record
Temperature  
Mean Temperature -0 °F -  
Max Temperature 5 °F 12 °F 19 °F (2002)
Min Temperature -6 °F -6 °F -27 °F (2009)
Degree Days  
Heating Degree Days 66    
Moisture  
Dew Point -4 °F    
Average Humidity 80    
Maximum Humidity 85    
Minimum Humidity 70    
Precipitation  
Precipitation 0.00 in 0.03 in - ()
Sea Level Pressure  
Sea Level Pressure 30.02 in    
Wind  
Wind Speed 6 mph ()    
Max Wind Speed 10 mph    
Max Gust Speed 21 mph    
Visibility 13.5 miles    
Events Snow    
Averages and records for this station are not official NWS values.
T = Trace of Precipitation, MM = Missing Value Source: Averaged Metar Reports

Daily Weather History Graph

Daily Weather History Graph

Search for Another Location

Airport or City:

Trip Planner

Search our weather history database for the weather conditions in past years. The results will help you decide how hot, cold, wet, or windy it might be!

Date:

Astronomy

Jan. 14, 2014 Rise Set
Actual Time 8:09 AM CST 4:43 PM CST
Civil Twilight 7:33 AM CST 5:20 PM CST
Nautical Twilight 6:52 AM CST 6:00 PM CST
Astronomical Twilight 6:14 AM CST 6:39 PM CST
Moon 3:52 PM CST (1/14) 6:42 AM CST (1/14)
Length of Visible Light 9h 47m
Length of Day
8h 33m
Waxing Gibbous, 98% of the Moon is Illuminated
Jan 14
Waxing Gibbous
Jan 15
Full
Jan 23
Last Quarter
Jan 30
New
Feb 6
First Quarter

Hourly Weather History & Observations

Time (CST) Temp. Windchill Dew Point Humidity Pressure Visibility Wind Dir Wind Speed Gust Speed Precip Events Conditions
12:00 AM 1 °F - -2 °F 82% 29.75 in 15 mi NNE 4.6 mph - -   Overcast
12:00 AM 1.4 °F -9.9 °F -2.2 °F 85% 29.75 in 15.0 mi NNE 5.8 mph - N/A   Overcast
1:00 AM 1.4 °F -9.9 °F -2.2 °F 85% 29.76 in 12.0 mi NE 5.8 mph - N/A Snow Light Snow
2:00 AM 1.4 °F - -2.2 °F 85% 29.79 in 12.0 mi NNE 2.3 mph - N/A Snow Light Snow
3:00 AM 1.4 °F -6.2 °F -2.2 °F 85% 29.82 in 15.0 mi NE 3.5 mph - N/A Snow Light Snow
4:00 AM -0.4 °F -10.4 °F -4.0 °F 85% 29.84 in 15.0 mi NNW 4.6 mph - N/A   Mostly Cloudy
5:00 AM -2.2 °F -14.2 °F -5.8 °F 85% 29.88 in 15.0 mi North 5.8 mph - N/A   Scattered Clouds
6:00 AM -3 °F - -7 °F 73% 29.91 in 15 mi NNW 5.8 mph - -   Partly Cloudy
6:00 AM -4.0 °F -16.3 °F -7.6 °F 85% 29.91 in 15.0 mi NNW 5.8 mph - N/A   Scattered Clouds
7:00 AM -4.0 °F -17.8 °F -9.4 °F 78% 29.94 in 15.0 mi NNW 6.9 mph - N/A   Scattered Clouds
8:00 AM -5.8 °F -21.2 °F -9.4 °F 84% 29.98 in 15.0 mi NNW 8.1 mph - N/A   Scattered Clouds
9:00 AM -4.0 °F -17.8 °F -9.4 °F 78% 30.00 in 15.0 mi NNW 6.9 mph - N/A   Mostly Cloudy
10:00 AM -2.2 °F -16.8 °F -5.8 °F 85% 30.04 in 15.0 mi NNW 8.1 mph - N/A   Mostly Cloudy
11:00 AM -2.2 °F -14.2 °F -5.8 °F 85% 30.07 in 15.0 mi NNW 5.8 mph - N/A   Mostly Cloudy
12:00 PM 2 °F - -2 °F 77% 30.08 in 15 mi NNW 4.6 mph - -   Scattered Clouds
12:00 PM 3.2 °F -6.2 °F -2.2 °F 78% 30.08 in 15.0 mi NW 4.6 mph - N/A   Mostly Cloudy
1:00 PM 5.0 °F -6.9 °F -0.4 °F 78% 30.09 in 12.0 mi NW 6.9 mph - N/A   Ice Crystals
2:00 PM 5.0 °F -8.1 °F -0.4 °F 78% 30.10 in 15.0 mi NW 8.1 mph - N/A   Ice Crystals
3:00 PM 5.0 °F -6.9 °F -0.4 °F 78% 30.12 in 15.0 mi NW 6.9 mph - N/A   Ice Crystals
4:00 PM 5.0 °F -6.9 °F -2.2 °F 72% 30.14 in 15.0 mi NW 6.9 mph - N/A   Ice Crystals
5:00 PM 3.2 °F -12.2 °F -2.2 °F 78% 30.17 in 6.0 mi NW 10.4 mph 17.3 mph N/A Snow Light Snow
6:00 PM 2 °F - -3 °F 70% 30.18 in 10 mi NW 9.2 mph - - Snow Light Snow
6:00 PM 1.4 °F -14.5 °F -2.2 °F 85% 30.18 in 10.0 mi NW 10.4 mph - N/A Snow Light Snow
7:00 PM 1.4 °F -13.5 °F -4.0 °F 78% 30.18 in 12.0 mi NW 9.2 mph - N/A Snow Light Snow
8:00 PM 1.4 °F -13.5 °F -4.0 °F 78% 30.19 in 12.0 mi NW 9.2 mph - N/A Snow Light Snow
9:00 PM 1.4 °F -11.3 °F -4.0 °F 78% 30.18 in 12.0 mi NNW 6.9 mph - N/A Snow Light Snow
10:00 PM 1.4 °F -14.5 °F -4.0 °F 78% 30.18 in 12.0 mi NW 10.4 mph 18.4 mph N/A Snow Light Snow
11:00 PM -0.4 °F -16.7 °F -5.8 °F 78% 30.19 in 12.0 mi NW 10.4 mph 20.7 mph N/A Snow Light Snow